Location: Easthampton
(42.2676°N, 72.6690°W)
Time: 05:02:45
(UTC+00:00)

N. Korean satellite - Pass Details

Date: 10 December 2022
Orbit: 407 x 444 km, 97.3° (Epoch: 28 January)

Event Time Altitude Azimuth Distance (km) Brightness Sun altitude
Rises 10:29:53 0° 6° (N) 2,487 10.1 -17.6°
Reaches altitude 10° 10:31:59 10° 0° (N) 1,599 9.0 -17.2°
Maximum altitude 10:35:18 47° 286° (WNW) 602 6.5 -16.6°
Drops below altitude 10° 10:38:31 10° 211° (SSW) 1,556 9.0 -16.1°
Sets 10:40:33 0° 206° (SSW) 2,409 10.0 -15.7°
